IGO9204 VECC-VEIM

Flight info

Callsign IGO9204
Flight time N/A
Altitude 35000
Route NOKAT2E NOKAT B593 CML DCT POREG
Aircraft A320/M-SDE3FGHIRWY/LB1

Departure

Time 2026-04-27 16:21
Airport Netaji Subhash Chandra Bose International Airport (VECC)

Arrival

Time N/A
Airport Bir Tikendrajit International Airport (VEIM)
Time Latitude Longitude Altitude Speed Heading
2026-04-27 16:10 22.64297 88.44043 24 ft 0 kts 253°
2026-04-27 16:15 22.64302 88.44072 24 ft 4 kts 272°
2026-04-27 16:15 22.64304 88.44139 24 ft 4 kts 255°
2026-04-27 16:16 22.64308 88.44156 24 ft 0 kts 253°
2026-04-27 16:18 22.64273 88.44147 24 ft 9 kts 159°
2026-04-27 16:18 22.64234 88.44300 24 ft 16 kts 160°
2026-04-27 16:19 22.64181 88.44364 24 ft 13 kts 73°
2026-04-27 16:19 22.64223 88.44468 27 ft 16 kts 67°
2026-04-27 16:20 22.64313 88.44638 28 ft 16 kts 19°
2026-04-27 16:20 22.64512 88.44664 23 ft 59 kts
2026-04-27 16:20 22.66172 88.44858 27 ft 170 kts
2026-04-27 16:21 22.67451 88.45041 225 ft 193 kts 11°
2026-04-27 16:21 22.71348 88.46525 1634 ft 218 kts 64°
2026-04-27 16:22 22.71874 88.48111 1971 ft 234 kts 84°
2026-04-27 16:22 22.72361 88.51939 2861 ft 275 kts 87°
2026-04-27 16:22 22.72630 88.54024 3619 ft 282 kts 84°
2026-04-27 16:23 22.72957 88.56146 4384 ft 289 kts 81°
2026-04-27 16:23 22.73747 88.60497 5905 ft 300 kts 76°
2026-04-27 16:23 22.74188 88.62727 6453 ft 307 kts 75°
2026-04-27 16:24 22.74642 88.64988 6612 ft 307 kts 75°
2026-04-27 16:24 22.75555 88.69516 6660 ft 308 kts 75°
2026-04-27 16:25 22.76350 88.74100 7561 ft 312 kts 78°
2026-04-27 16:25 22.76985 88.78793 9049 ft 318 kts 78°
2026-04-27 16:26 22.77631 88.83642 10027 ft 342 kts 78°
2026-04-27 16:26 22.78386 88.89061 10447 ft 381 kts 77°
2026-04-27 16:27 22.79287 88.94795 11601 ft 388 kts 70°
2026-04-27 16:27 22.81766 89.03267 13312 ft 399 kts 68°
2026-04-27 16:28 22.83460 89.09050 14402 ft 405 kts 68°
2026-04-27 16:28 22.85171 89.14893 15475 ft 409 kts 68°
2026-04-27 16:29 22.87744 89.23735 17023 ft 415 kts 69°
2026-04-27 16:30 22.89498 89.29748 17990 ft 421 kts 69°
2026-04-27 16:30 22.91276 89.35838 18841 ft 426 kts 69°
2026-04-27 16:31 22.93964 89.45113 20111 ft 434 kts 69°
2026-04-27 16:31 22.95785 89.51388 20974 ft 438 kts 69°
2026-04-27 16:32 22.97623 89.57731 21794 ft 443 kts 69°
2026-04-27 16:32 22.98547 89.60934 22192 ft 446 kts 69°
2026-04-27 16:33 23.00402 89.67385 22958 ft 451 kts 69°
2026-04-27 16:33 23.01339 89.70640 23334 ft 453 kts 69°
2026-04-27 16:33 23.02286 89.73916 23667 ft 455 kts 69°
2026-04-27 16:33 23.03236 89.77202 23990 ft 457 kts 69°
2026-04-27 16:34 23.04187 89.80503 24311 ft 460 kts 69°
2026-04-27 16:34 23.05141 89.83823 24632 ft 462 kts 69°
2026-04-27 16:34 23.06097 89.87159 24951 ft 464 kts 70°
2026-04-27 16:34 23.07055 89.90511 25269 ft 466 kts 70°
2026-04-27 16:35 23.08016 89.93878 25583 ft 468 kts 70°
2026-04-27 16:35 23.08984 89.97263 25895 ft 470 kts 70°
2026-04-27 16:35 23.10918 90.04089 26467 ft 476 kts 70°
2026-04-27 16:36 23.11883 90.07540 26782 ft 478 kts 70°
2026-04-27 16:36 23.12847 90.10999 27101 ft 481 kts 70°
2026-04-27 16:36 23.13818 90.14489 27419 ft 483 kts 70°
2026-04-27 16:36 23.14790 90.17993 27744 ft 485 kts 70°
2026-04-27 16:37 23.15764 90.21504 28062 ft 488 kts 70°
2026-04-27 16:37 23.16749 90.25041 28379 ft 490 kts 70°
2026-04-27 16:37 23.17738 90.28588 28692 ft 492 kts 70°
2026-04-27 16:37 23.18729 90.32154 29114 ft 492 kts 70°
2026-04-27 16:38 23.19715 90.35710 29593 ft 491 kts 70°
2026-04-27 16:38 23.20699 90.39261 30016 ft 491 kts 70°
2026-04-27 16:38 23.21673 90.42772 30282 ft 493 kts 70°
2026-04-27 16:38 23.22681 90.46397 30603 ft 494 kts 70°
2026-04-27 16:39 23.23691 90.49962 30948 ft 494 kts 70°
2026-04-27 16:39 23.24717 90.53531 31315 ft 494 kts 70°
2026-04-27 16:39 23.25749 90.57090 31678 ft 494 kts 70°
2026-04-27 16:39 23.26785 90.60658 32051 ft 494 kts 70°
2026-04-27 16:40 23.27818 90.64232 32424 ft 494 kts 70°
2026-04-27 16:40 23.28839 90.67793 32791 ft 494 kts 71°
2026-04-27 16:40 23.29860 90.71364 33160 ft 494 kts 71°
2026-04-27 16:40 23.30879 90.74934 33532 ft 494 kts 71°
2026-04-27 16:41 23.31881 90.78457 33861 ft 495 kts 71°
2026-04-27 16:41 23.32901 90.82043 34135 ft 495 kts 71°
2026-04-27 16:41 23.33915 90.85616 34422 ft 495 kts 71°
2026-04-27 16:41 23.34932 90.89202 34659 ft 496 kts 71°
2026-04-27 16:42 23.35951 90.92796 34728 ft 500 kts 71°
2026-04-27 16:42 23.38010 91.00069 34728 ft 505 kts 71°
2026-04-27 16:43 23.40068 91.07376 34730 ft 505 kts 71°
2026-04-27 16:43 23.42120 91.14698 34744 ft 505 kts 72°
2026-04-27 16:44 23.44887 91.21692 34725 ft 502 kts 55°
2026-04-27 16:44 23.48632 91.28105 34736 ft 502 kts 54°
2026-04-27 16:45 23.52365 91.34532 34730 ft 502 kts 55°
2026-04-27 16:45 23.56083 91.40972 34744 ft 502 kts 55°
2026-04-27 16:46 23.59805 91.47422 34745 ft 502 kts 55°
2026-04-27 16:46 23.63534 91.53860 34765 ft 502 kts 54°
2026-04-27 16:47 23.67257 91.60294 34772 ft 501 kts 54°
2026-04-27 16:47 23.70963 91.66717 34777 ft 499 kts 54°
2026-04-27 16:48 23.74057 91.72077 34803 ft 499 kts 54°